Temp
15 15 15 16 15 15 15 15 15 15 15 15 15 15 15 14 14 13 13 13 13 13 13 13 13 13 13 14 14 13 13 13 13
16 15 15 15 15 15 15 15 15 15 15 15 15 15 15 15 15 14 13 13 13 13 13 13 13 13 13 14 14 14 13 13 13
15 15 15 15 15 15 15 15 15 15 15 15 14 14 14 14 14 14 14 14 13 13 13 13 13 13 13 13 13 13 13 13 13
15 15 15 15 15 15 15 15 15 15 15 14 14 14 14 13 13 13 13 13 13 13 13 13 13 13 13 13 13 13 13 13 13
15 14 14 14 14 14 14 14 15 14 14 14 13 13 12 12 12 12 12 12 12 12 12 13 13 13 13 13 13 12 13 12 13
14 14 14 14 14 14 14 14 14 13 13 13 12 12 12 11 11 11 11 11 11 11 11 12 12 12 12 12 12 12 12 13 13
14 14 14 14 14 14 13 13 13 12 12 12 11 11 11 11 10 10 10 11 11 11 10 11 11 11 11 12 12 12 12 13 13
14 14 14 13 13 13 13 12 12 12 11 11 11 10 10 10 9 9 9 10 10 10 10 10 11 11 11 11 12 12 12 12 13
14 14 14 13 13 12 12 12 11 11 10 10 10 10 10 9 9 8 8 8 9 9 9 9 10 10 10 10 11 11 11 11 12
13 13 13 12 12 12 12 11 11 11 10 10 10 10 10 9 8 8 8 8 8 8 8 8 8 8 8 9 10 10 10 10 10
13 13 13 12 12 11 11 11 10 10 10 10 10 10 9 9 8 8 8 8 8 8 8 7 7 7 7 8 9 9 9 9 9
12 13 12 12 11 11 10 10 10 10 10 10 10 9 8 8 8 7 7 7 7 8 8 7 7 8 8 8 9 8 9 8 8
12 12 12 11 11 11 10 10 10 10 10 10 10 9 8 8 8 7 7 7 7 7 7 7 8 8 8 8 8 8 9 8 8
12 11 11 11 10 10 10 9 10 10 10 9 9 8 8 8 7 7 7 7 7 7 7 7 7 8 8 8 8 8 7 7 8
11 11 10 10 10 10 10 9 9 9 9 9 8 8 7 7 7 7 7 7 7 7 7 7 7 7 7 7 7 7 6 6 6
11 10 10 10 10 9 10 10 10 10 9 8 7 7 7 7 7 7 7 7 7 7 7 6 6 6 6 6 6 7 6 6 6
10 10 10 9 9 9 9 9 9 8 8 8 8 7 7 6 7 6 6 6 6 6 6 6 6 5 5 5 6 6 6 6 6
10 10 9 9 9 9 9 8 8 8 7 6 6 5 5 5 6 6 6 6 6 6 6 6 6 5 5 4 5 6 6 6 6
10 10 9 9 8 8 8 8 8 7 6 5 4 3 3 3 4 6 6 5 5 6 6 6 6 6 5 5 4 5 5 6 5
10 10 9 8 8 8 7 7 7 6 6 5 4 4 3 3 3 3 5 6 5 5 6 6 6 6 5 5 5 5 5 5 5
Height
1559 1557 1556 1555 1554 1553 1552 1550 1549 1548 1547 1545 1545 1544 1543 1542 1541 1541 1541 1540 1540 1540 1540 1539 1539 1539 1538 1538 1538 1538 1538 1537 1537
1558 1557 1555 1554 1553 1551 1550 1549 1547 1546 1544 1543 1542 1541 1539 1538 1538 1538 1538 1537 1537 1537 1537 1537 1536 1537 1537 1536 1536 1535 1535 1536 1536
1557 1556 1554 1553 1552 1550 1548 1547 1545 1543 1542 1540 1538 1537 1535 1535 1534 1533 1533 1533 1533 1533 1534 1533 1533 1533 1533 1533 1533 1533 1533 1533 1533
1556 1555 1553 1552 1550 1548 1546 1544 1542 1540 1538 1536 1535 1533 1532 1531 1530 1529 1529 1529 1529 1530 1530 1530 1530 1529 1529 1530 1530 1530 1530 1530 1530
1555 1554 1552 1550 1548 1546 1544 1542 1540 1537 1535 1533 1531 1529 1528 1527 1526 1526 1525 1526 1527 1527 1526 1525 1526 1525 1526 1525 1526 1526 1526 1527 1527
1554 1552 1550 1548 1546 1544 1542 1539 1537 1534 1532 1529 1527 1525 1524 1523 1522 1522 1522 1523 1524 1524 1523 1523 1522 1523 1522 1522 1522 1522 1523 1523 1524
1554 1551 1550 1547 1545 1543 1540 1537 1534 1532 1530 1527 1525 1523 1521 1520 1519 1519 1519 1519 1520 1521 1520 1520 1520 1520 1520 1520 1519 1518 1519 1520 1520
1553 1551 1549 1546 1544 1541 1539 1536 1533 1531 1528 1526 1523 1521 1519 1517 1517 1516 1516 1516 1516 1516 1516 1517 1517 1517 1517 1517 1517 1516 1516 1515 1515
1552 1549 1547 1544 1542 1540 1537 1534 1532 1529 1527 1524 1522 1519 1518 1516 1515 1515 1514 1513 1513 1513 1513 1514 1514 1514 1513 1512 1512 1512 1511 1511 1510
1551 1549 1546 1543 1541 1538 1536 1533 1530 1528 1526 1523 1521 1519 1517 1516 1514 1514 1513 1512 1511 1511 1511 1512 1512 1512 1510 1509 1509 1509 1508 1508 1507
1550 1548 1545 1543 1540 1537 1535 1532 1529 1527 1524 1521 1520 1518 1517 1515 1514 1514 1513 1512 1510 1510 1510 1511 1510 1510 1509 1509 1507 1508 1507 1507 1507
1550 1547 1545 1542 1539 1537 1534 1531 1529 1526 1523 1520 1518 1517 1517 1516 1515 1515 1514 1513 1511 1510 1509 1509 1509 1509 1509 1509 1507 1506 1507 1507 1506
1549 1547 1544 1542 1539 1536 1533 1530 1528 1525 1523 1520 1518 1517 1517 1517 1516 1516 1515 1514 1512 1511 1510 1510 1509 1509 1509 1508 1507 1505 1505 1505 1504
1548 1546 1543 1541 1538 1535 1532 1530 1527 1524 1522 1521 1520 1519 1519 1519 1518 1517 1516 1515 1514 1513 1512 1511 1511 1510 1510 1508 1507 1506 1504 1503 1502
1547 1544 1542 1540 1537 1535 1532 1529 1526 1523 1522 1521 1521 1521 1520 1520 1519 1518 1516 1515 1515 1514 1512 1512 1511 1510 1509 1508 1506 1505 1504 1503 1501
1545 1543 1541 1538 1536 1534 1531 1528 1526 1524 1522 1521 1521 1520 1520 1520 1519 1518 1517 1516 1515 1514 1513 1513 1512 1510 1509 1507 1506 1504 1503 1502 1500
1543 1541 1539 1537 1535 1533 1531 1528 1526 1524 1521 1521 1519 1519 1520 1520 1518 1518 1517 1516 1515 1514 1513 1512 1511 1510 1509 1507 1505 1504 1502 1500 1498
1541 1539 1537 1535 1534 1532 1530 1528 1526 1524 1523 1521 1521 1519 1519 1517 1517 1516 1516 1514 1514 1513 1513 1512 1511 1510 1508 1506 1505 1503 1501 1498 1496
1538 1537 1535 1534 1532 1531 1529 1527 1526 1524 1523 1522 1521 1520 1520 1518 1516 1515 1515 1513 1512 1512 1512 1511 1510 1509 1508 1506 1503 1501 1499 1497 1494
1536 1535 1533 1532 1531 1530 1528 1527 1525 1524 1523 1521 1521 1519 1519 1518 1519 1515 1513 1512 1511 1510 1510 1510 1508 1507 1506 1504 1502 1500 1497 1494 1491
Wind_Speed
11 12 12 12 13 13 14 14 14 15 15 15 16 17 18 18 17 14 14 13 13 13 11 11 13 11 12 11 10 11 10 8 7
12 13 13 14 15 15 16 16 17 17 18 18 18 18 19 20 20 20 18 17 16 15 14 12 13 15 13 11 11 12 12 12 11
13 13 14 15 16 17 18 18 19 19 20 20 20 20 20 20 21 21 20 20 21 20 18 18 17 18 17 14 13 13 14 15 15
13 14 15 16 17 18 19 19 20 21 21 21 22 21 21 20 20 20 19 19 19 19 22 22 22 18 20 19 17 15 15 16 16
15 15 16 17 18 19 20 21 21 21 22 21 21 21 20 20 20 19 17 16 16 15 15 20 24 23 20 19 18 16 17 17 17
16 16 17 18 19 20 20 21 22 22 21 21 20 20 20 19 18 18 18 17 14 13 14 15 19 21 18 16 18 15 11 11 11
16 17 17 18 19 19 19 20 19 19 19 18 18 18 17 17 17 16 17 18 17 15 13 15 15 15 15 16 18 18 15 17 19
15 16 17 17 18 18 19 18 18 18 18 18 17 17 16 14 14 14 14 14 15 15 15 16 17 17 17 19 20 21 21 21 23
16 17 18 18 19 19 19 18 18 18 18 18 16 16 15 13 12 11 11 12 12 12 11 13 15 16 18 20 22 21 21 21 22
16 17 18 19 20 20 19 19 18 19 18 17 16 15 14 11 10 8 9 10 10 9 8 7 6 7 13 15 15 12 12 13 13
16 18 18 19 19 19 19 19 20 20 19 16 14 13 10 9 8 8 8 8 8 8 6 5 2 5 7 5 6 8 8 7 8
16 18 18 18 19 19 18 18 18 17 15 14 13 9 7 7 7 8 9 9 9 8 4 0 5 7 6 2 2 2 6 8 11
15 17 17 17 18 19 19 19 19 17 14 12 11 7 5 6 7 8 10 10 10 10 7 6 6 5 6 6 6 6 7 9 8
15 16 17 18 18 18 18 17 18 16 12 8 8 6 6 6 7 7 9 10 10 10 8 7 4 3 3 7 9 9 8 5 5
15 16 17 17 17 16 16 17 17 15 12 6 4 3 4 6 5 6 8 8 8 8 8 6 5 6 6 6 6 9 11 11 9
15 16 16 16 16 16 17 17 16 15 10 6 3 3 3 3 4 5 6 7 5 6 6 7 7 7 7 7 8 10 12 13 13
17 17 16 15 15 15 15 16 16 14 14 10 5 3 4 5 9 5 6 6 4 3 3 5 7 8 10 10 10 11 13 13 13
18 16 15 14 14 14 14 14 15 14 12 11 7 3 3 14 2 4 5 5 3 3 2 3 5 8 10 13 12 15 18 16 14
16 15 13 13 13 12 13 13 13 13 11 9 9 3 4 5 8 3 4 6 5 6 5 6 6 7 10 12 15 18 20 21 18
15 14 13 12 12 12 12 12 12 12 11 9 9 8 5 3 5 13 12 6 6 8 8 9 9 7 11 13 17 20 24 25 20
Wind_Direction
333 332 332 329 326 324 322 318 313 308 303 296 291 287 285 283 286 286 282 280 285 283 286 285 277 298 302 301 292 290 290 298 307
335 334 331 329 329 328 326 323 319 315 310 307 302 297 291 286 281 278 273 272 268 269 268 270 279 280 291 293 290 288 281 284 287
337 334 333 332 330 328 326 322 319 315 311 307 303 300 296 292 288 284 278 271 266 265 262 263 276 264 267 272 275 278 270 278 280
338 336 333 331 329 327 324 321 318 315 313 310 306 302 298 294 292 290 286 277 273 272 266 261 268 273 267 268 270 275 272 270 269
338 337 336 333 331 331 329 326 323 320 319 316 313 309 304 299 293 290 289 284 281 286 293 263 261 267 278 271 263 269 273 279 276
341 342 341 338 335 334 332 330 327 325 324 321 317 314 310 305 297 289 284 281 279 281 288 284 269 271 281 274 269 250 261 273 290
345 345 339 340 339 336 336 332 331 331 330 329 327 323 318 313 308 299 289 283 278 274 278 278 279 279 282 283 285 289 280 281 280
346 344 344 345 343 342 341 339 337 338 337 335 335 334 331 323 318 316 308 296 288 279 271 274 279 283 282 280 282 289 290 285 282
348 351 350 349 348 346 345 343 342 341 343 340 339 338 338 337 333 328 322 315 305 295 283 276 276 282 284 286 290 290 289 284 279
354 353 351 352 350 348 347 346 344 345 345 340 337 338 337 339 344 340 328 323 318 318 318 313 306 291 280 290 306 315 311 307 301
355 354 355 353 350 350 349 348 347 347 341 338 339 341 350 350 350 350 351 347 341 338 338 358 309 304 327 350 5 350 332 318 310
355 354 353 352 352 351 350 348 346 347 348 344 344 339 352 3 10 11 11 7 6 0 356 331 3 23 24 41 0 324 316 321 317
351 351 352 353 353 353 350 348 349 354 352 355 12 31 20 23 25 26 23 21 16 16 27 47 64 59 56 51 38 13 331 316 352
347 348 350 353 354 353 352 352 352 354 359 5 20 37 45 27 25 20 21 23 19 27 41 53 42 29 331 316 307 316 9 323 315
342 345 347 349 350 352 355 357 356 356 0 357 8 25 12 358 352 12 21 18 23 34 44 34 21 4 350 350 352 351 14 8 355
335 336 337 341 344 351 355 357 358 357 4 9 328 324 328 355 342 342 355 358 9 25 22 34 29 14 6 354 350 347 350 4 0
326 325 326 330 339 345 350 354 358 357 357 4 1 345 288 270 302 296 338 351 349 339 15 25 10 6 354 347 346 341 342 347 356
319 319 318 320 328 335 342 351 353 357 358 354 12 11 330 337 342 285 307 334 306 300 314 301 328 338 348 350 347 348 351 347 353
319 320 318 315 316 322 334 343 348 350 355 359 350 355 324 340 324 300 279 339 293 275 275 272 280 308 324 334 335 340 347 346 348
316 319 317 311 309 312 320 329 336 336 340 344 338 342 323 304 304 306 320 313 277 309 278 270 274 291 304 305 319 327 330 331 331